Vorticity
4 4 4 5 5 4 4 5 5 4 6 6 6 5 5 6 6 5 5 4 5 6 5 5 3 2 2 3 5 5 5 6 6
5 5 4 5 4 5 5 5 5 5 5 5 5 5 5 5 5 5 5 5 6 6 5 4 4 3 2 2 2 4 5 5 5
5 5 5 5 6 6 5 6 5 5 6 6 5 5 5 5 6 5 5 5 5 5 5 5 5 4 3 2 2 2 3 4 5
10 11 11 10 10 10 9 8 7 7 7 6 6 6 5 5 5 6 6 6 5 5 6 6 5 5 5 4 3 3 2 2 4
7 7 7 6 6 6 6 5 5 6 6 7 7 7 7 6 6 7 7 7 6 6 6 5 5 5 5 5 4 3 3 3 3
6 5 4 4 5 5 5 6 6 6 6 6 6 7 7 7 7 7 8 7 7 7 6 6 5 5 5 5 5 4 4 4 3
7 6 7 7 7 7 7 8 7 8 8 9 8 7 7 6 6 6 6 7 7 7 7 7 6 6 6 5 5 5 5 5 5
7 7 7 6 6 5 4 4 6 6 7 6 6 7 7 8 8 8 7 5 5 6 6 7 7 7 7 7 6 6 6 5 5
6 5 4 4 2 2 2 3 3 3 3 3 3 3 3 4 5 6 7 8 9 7 5 5 5 5 5 5 6 7 7 7 6
2 1 2 2 1 1 2 2 2 2 3 3 2 4 4 4 4 4 4 6 5 6 8 9 8 6 5 4 5 5 6 6 7
5 3 3 3 2 1 3 2 2 2 3 5 6 7 7 7 6 6 9 9 11 12 6 5 7 8 8 7 6 6 6 6 6
7 8 7 6 6 7 6 6 6 7 7 7 7 5 7 10 10 8 6 7 9 8 9 10 5 5 5 6 8 7 6 7 8
8 8 8 8 9 10 11 12 14 15 13 9 8 7 7 8 8 9 8 6 6 7 7 6 4 5 4 5 6 6 5 6 6
7 6 7 7 8 8 8 7 7 8 8 8 7 7 7 7 7 7 7 8 10 12 11 10 8 6 7 6 6 6 8 8 5
5 6 7 7 7 8 8 6 5 5 6 6 5 6 6 6 7 7 8 8 8 9 8 8 10 12 16 16 15 12 10 8 9
8 9 9 8 6 6 6 5 5 3 3 5 5 4 6 7 8 7 6 5 7 5 6 8 8 11 12 11 12 12 19 17 14
9 7 7 6 4 2 2 3 4 5 5 6 6 9 6 5 7 7 7 8 7 8 8 8 9 4 5 11 13 4 12 5 20
6 5 4 4 4 4 4 4 5 6 8 9 8 12 7 8 8 8 8 9 9 9 9 10 9 10 11 8 6 9 6 -0 1
4 4 4 4 4 4 6 8 8 9 10 11 10 9 6 9 13 8 14 13 15 13 13 13 13 12 10 11 12 12 13 12 8
5 5 5 7 9 10 12 15 15 14 13 13 13 14 14 13 10 9 8 6 9 9 11 14 16 18 18 16 16 14 6 19 17
Height
3130 3130 3130 3131 3130 3129 3128 3127 3124 3123 3122 3121 3120 3119 3117 3116 3114 3112 3111 3110 3110 3110 3110 3109 3108 3107 3107 3106 3105 3104 3103 3102 3101
3128 3128 3127 3127 3127 3126 3125 3124 3122 3120 3119 3117 3116 3115 3114 3112 3111 3109 3109 3108 3106 3106 3106 3105 3105 3104 3103 3103 3102 3101 3100 3099 3098
3127 3126 3125 3124 3123 3123 3122 3121 3119 3117 3115 3114 3113 3112 3111 3109 3107 3106 3104 3104 3103 3102 3102 3101 3100 3100 3100 3099 3098 3098 3097 3096 3096
3125 3124 3123 3122 3120 3120 3119 3118 3116 3114 3112 3110 3109 3108 3107 3106 3103 3102 3100 3100 3099 3099 3098 3098 3098 3097 3096 3094 3093 3093 3093 3092 3092
3124 3122 3120 3119 3118 3117 3116 3114 3112 3110 3108 3107 3105 3104 3103 3101 3100 3099 3098 3097 3095 3095 3095 3094 3093 3092 3091 3090 3090 3089 3088 3088 3088
3121 3119 3117 3116 3115 3113 3112 3110 3108 3107 3105 3103 3102 3100 3099 3097 3096 3095 3094 3092 3091 3091 3090 3089 3088 3087 3086 3085 3084 3084 3084 3083 3083
3118 3116 3115 3113 3112 3110 3109 3108 3106 3104 3102 3101 3099 3097 3095 3094 3092 3091 3089 3088 3086 3085 3084 3084 3083 3082 3081 3080 3079 3078 3078 3078 3077
3116 3114 3113 3110 3109 3107 3106 3105 3103 3101 3100 3098 3096 3094 3092 3090 3088 3087 3085 3083 3082 3081 3079 3078 3077 3076 3074 3074 3073 3072 3071 3071 3071
3114 3112 3110 3108 3107 3105 3103 3102 3100 3098 3097 3095 3093 3090 3088 3085 3083 3082 3080 3078 3076 3075 3073 3072 3070 3069 3067 3066 3065 3064 3064 3064 3063
3112 3110 3108 3106 3103 3101 3100 3099 3097 3095 3093 3091 3089 3086 3084 3082 3079 3077 3075 3073 3071 3068 3066 3065 3063 3062 3060 3058 3057 3057 3056 3055 3054
3110 3107 3105 3102 3100 3098 3097 3095 3093 3090 3088 3086 3083 3080 3077 3075 3072 3069 3067 3065 3064 3062 3059 3057 3055 3053 3052 3050 3048 3047 3046 3045 3045
3106 3104 3102 3100 3097 3095 3092 3089 3086 3083 3080 3078 3076 3072 3070 3067 3064 3061 3058 3055 3053 3053 3050 3047 3045 3043 3041 3040 3039 3038 3038 3037 3036
3103 3100 3098 3095 3093 3089 3086 3083 3080 3077 3073 3069 3067 3064 3061 3059 3056 3053 3050 3047 3043 3041 3040 3037 3034 3031 3030 3028 3027 3026 3025 3025 3024
3099 3096 3093 3090 3087 3083 3080 3077 3073 3070 3065 3061 3059 3056 3053 3050 3047 3044 3041 3037 3035 3032 3028 3026 3024 3021 3018 3015 3013 3012 3011 3011 3011
3094 3091 3088 3085 3081 3077 3073 3069 3065 3061 3055 3051 3048 3046 3043 3040 3037 3033 3030 3027 3024 3020 3016 3014 3010 3009 3006 3003 2999 2998 2996 2996 2996
3089 3085 3082 3079 3075 3071 3066 3062 3058 3054 3048 3041 3037 3035 3032 3029 3024 3021 3018 3015 3012 3008 3004 3001 2997 2994 2992 2991 2989 2985 2982 2980 2979
3083 3080 3076 3073 3068 3064 3059 3054 3050 3046 3042 3033 3026 3020 3020 3019 3013 3009 3006 3002 2999 2996 2991 2988 2984 2980 2977 2975 2973 2973 2971 2969 2965
3078 3074 3070 3066 3061 3056 3051 3046 3040 3034 3032 3027 3019 3007 3001 2995 2997 2994 2990 2986 2983 2980 2976 2974 2970 2966 2962 2959 2957 2956 2956 2955 2952
3072 3067 3063 3058 3053 3048 3043 3037 3031 3025 3018 3015 3013 3007 2995 2984 2972 2976 2974 2972 2968 2965 2961 2957 2954 2951 2947 2943 2940 2939 2937 2936 2934
3065 3061 3056 3051 3045 3039 3034 3028 3022 3016 3009 3003 2998 2993 2989 2984 2974 2957 2957 2956 2952 2948 2942 2940 2938 2937 2933 2929 2927 2920 2916 2916 2914